Date,TemperatureHighF,TemperatureAvgF,TemperatureLowF,DewpointHighF,DewpointAvgF,DewpointLowF,HumidityHigh,HumidityAvg,HumidityLow,PressureMaxIn,PressureMinIn,WindSpeedMaxMPH,WindSpeedAvgMPH,GustSpeedMaxMPH,PrecipitationSumIn
2013-1-1,14,5,-7,9,0,-11,83,80,73,29.27,29.12,12,4,12,0.00
2013-1-2,20,10,3,15,6,-1,83,81,79,29.13,29.00,16,10,16,0.00
2013-1-3,26,14,7,23,9,3,90,83,79,29.31,29.09,20,11,20,0.00
2013-1-4,28,18,7,22,14,3,88,85,77,29.22,29.14,17,6,17,0.00
2013-1-5,34,22,14,30,19,11,91,87,83,29.18,28.92,22,11,22,0.00
2013-1-6,21,14,9,15,10,6,89,85,79,29.28,28.99,20,9,20,0.00
2013-1-7,37,27,13,29,22,10,88,82,72,29.21,29.02,29,12,29,0.00
2013-1-8,36,29,20,32,26,17,91,88,82,29.04,28.90,24,12,24,0.00
2013-1-9,37,30,26,30,26,22,89,84,73,29.44,29.01,29,11,29,0.00
2013-1-10,40,32,26,33,27,22,93,82,59,29.43,28.79,22,13,22,0.00
2013-1-11,42,38,34,41,36,32,95,94,93,28.79,28.53,29,12,29,0.00
2013-1-12,44,24,14,43,19,7,95,81,75,29.07,28.53,38,16,38,0.00
2013-1-13,14,9,6,7,4,1,83,78,72,29.28,29.01,17,9,17,0.00
2013-1-14,24,13,4,16,8,0,86,79,67,29.43,29.27,22,6,22,0.00
2013-1-15,30,19,11,19,13,7,86,77,61,29.38,29.03,17,10,17,0.00
2013-1-16,41,28,16,33,23,11,91,82,74,29.18,28.82,22,12,22,0.00
2013-1-17,26,20,12,20,14,7,86,79,70,29.42,29.18,18,6,18,0.00
2013-1-18,46,34,23,36,28,19,86,79,65,29.36,28.85,36,16,36,0.00
2013-1-19,42,26,10,34,19,3,87,75,71,29.18,28.81,32,14,32,0.00
2013-1-20,14,8,3,5,1,-2,78,73,63,29.37,29.17,18,8,18,0.00
2013-1-21,6,0,-4,-2,-6,-10,73,72,71,29.25,29.23,24,10,24,0.00
2013-1-30,26,19,12,24,16,8,93,88,85,28.75,28.53,30,15,30,0.00
2013-1-31,12,3,-4,8,-2,-9,85,81,78,29.26,28.75,23,13,23,0.00
2013-2-1,11,0,-10,8,-6,-14,86,79,72,29.33,29.04,19,10,19,0.00
2013-2-2,17,13,10,12,9,5,88,82,72,29.15,28.97,15,6,15,0.00
2013-2-3,20,16,8,17,12,5,90,83,71,29.10,28.88,23,8,23,0.00
2013-2-4,21,16,9,17,12,5,89,83,74,29.02,28.85,14,6,14,0.00
2013-2-5,34,25,12,29,21,8,89,85,81,29.12,28.78,22,10,22,0.00
2013-2-6,38,27,12,32,23,9,91,86,74,29.16,28.97,28,10,28,0.00
2013-2-7,36,32,26,34,30,24,93,92,90,29.18,28.95,22,10,22,0.00
2013-2-8,34,28,25,27,24,22,91,85,72,29.36,29.18,21,7,21,0.00
2013-2-9,31,28,25,28,25,22,91,89,87,29.31,28.97,30,19,30,0.00
2013-2-10,39,34,30,38,32,28,95,93,90,28.98,28.35,28,17,28,0.00
2013-2-11,32,27,22,31,23,18,94,87,80,29.08,28.40,44,18,44,0.00
2013-2-12,34,27,21,29,23,17,91,84,78,29.11,28.86,21,9,21,0.00
2013-2-13,37,28,22,32,25,20,93,89,79,28.86,28.75,20,5,20,0.00
2013-2-14,36,32,23,33,27,14,90,81,68,29.10,28.63,24,11,24,0.00
2013-2-15,23,18,12,15,11,6,82,75,67,29.29,29.15,22,9,22,0.00
2013-2-16,23,15,9,16,10,5,85,79,71,29.27,29.14,11,4,11,0.00
2013-2-17,32,23,13,25,18,8,86,80,72,29.15,28.75,33,18,33,0.00
2013-2-18,40,27,10,34,23,5,90,84,76,28.79,28.59,29,13,29,0.00
2013-2-19,70,6,1,5,1,-4,85,80,75,29.32,28.79,26,13,26,0.00
2013-2-20,22,10,0,14,4,-5,83,78,72,29.42,29.31,15,6,15,0.00
2013-2-21,24,18,11,21,13,6,91,82,74,29.38,28.94,16,6,16,0.00
2013-2-22,39,26,21,31,22,18,91,85,71,28.95,28.82,12,6,12,0.00
2013-2-23,27,20,12,20,15,8,89,83,71,28.99,28.90,14,7,14,0.00
2013-2-24,35,21,9,26,16,6,89,83,69,29.12,28.99,12,3,12,0.00
2013-2-25,44,30,24,33,25,20,88,83,65,29.13,28.98,10,4,10,0.00
2013-2-26,34,31,28,28,27,24,91,84,79,28.98,28.73,24,10,24,0.00
2013-2-27,35,31,28,31,28,26,92,89,79,28.93,28.75,22,13,22,0.00
2013-2-28,35,30,26,28,25,23,91,84,73,29.16,28.93,19,12,19,0.00
2013-3-1,32,26,20,23,20,16,86,78,65,29.27,29.15,11,7,11,0.00
2013-3-2,26,11,5,18,6,2,86,82,68,29.31,29.23,9,2,9,0.00
2013-3-3,32,26,12,21,17,7,80,67,59,29.16,29.04,14,8,14,0.00
2013-3-4,32,27,21,26,22,16,90,81,70,29.04,28.91,19,10,19,0.00
2013-3-5,36,28,18,29,24,15,91,84,72,29.23,28.94,20,10,20,0.00
2013-3-6,29,21,8,22,16,4,89,82,72,29.38,29.22,22,10,22,0.00
2013-3-7,33,17,2,25,12,-2,89,83,72,29.40,29.33,16,5,16,0.00
2013-3-8,38,29,18,32,25,15,91,85,76,29.37,29.16,25,16,25,0.00
2013-3-9,37,35,33,35,33,30,94,92,89,29.16,28.76,33,19,33,0.00
2013-3-10,37,35,33,36,33,31,95,94,94,28.83,28.66,21,9,21,0.00
2013-3-11,33,30,24,31,27,21,94,91,88,28.89,28.68,15,9,15,0.00
2013-3-12,31,25,20,27,20,16,89,84,76,29.14,28.88,22,10,22,0.00
2013-3-13,28,21,14,19,15,10,86,80,67,29.38,29.14,14,6,14,0.00
2013-3-14,41,31,20,34,27,17,91,83,72,29.26,29.05,21,8,21,0.00
2013-3-15,41,34,27,35,30,24,92,88,80,29.05,28.82,10,3,10,0.00
2013-3-16,33,29,22,31,25,17,94,86,76,29.21,28.83,21,11,21,0.00
2013-3-17,32,25,16,25,18,12,83,77,66,29.22,28.95,22,11,22,0.00
2013-3-18,34,25,15,30,21,11,91,85,78,28.93,28.68,23,16,23,0.00
2013-3-19,26,19,10,16,11,5,86,71,63,29.17,28.87,23,14,23,0.00
2013-3-20,20,13,8,10,6,2,78,73,65,29.21,29.12,28,10,28,0.00
2013-3-21,26,15,4,15,8,0,83,74,62,29.14,29.04,12,4,12,0.00
2013-3-22,34,22,10,22,15,6,84,74,59,29.10,29.04,9,3,9,0.00
2013-3-23,41,30,19,27,22,15,85,73,55,29.15,29.05,10,4,10,0.00
2013-3-24,34,30,27,28,26,24,89,83,77,29.07,28.90,22,9,22,0.00
2013-3-25,36,30,23,27,24,18,87,79,69,29.20,28.93,23,13,23,0.00
2013-3-26,38,30,24,29,24,20,87,79,62,29.31,29.20,12,4,12,0.00
2013-3-27,42,32,24,28,25,22,90,74,53,29.37,29.31,8,1,8,0.00
2013-3-28,49,36,26,35,27,21,85,71,53,29.37,29.30,11,2,11,0.00
2013-3-29,52,40,32,40,32,25,83,73,62,29.35,29.19,14,7,14,0.00
2013-3-30,47,40,32,43,37,31,94,88,81,29.19,28.90,25,12,25,0.00
2013-3-31,42,34,29,38,30,23,95,85,67,29.05,28.86,25,7,25,0.00
2013-4-1,33,28,22,24,21,17,81,75,63,29.26,29.05,22,10,22,0.00
2013-4-2,36,29,22,26,23,19,89,77,63,29.36,29.25,22,6,22,0.00
2013-4-3,43,32,22,28,24,18,88,71,52,29.44,29.26,19,7,19,0.00
2013-4-4,52,40,31,41,32,24,83,72,61,29.26,29.06,18,10,18,0.00
2013-4-5,50,39,28,33,29,23,85,69,47,29.25,28.98,18,7,18,0.00
2013-4-6,58,46,37,49,38,25,91,74,60,28.98,28.55,36,16,36,0.00
2013-4-7,56,44,35,45,38,32,89,80,65,29.01,28.78,48,6,48,0.00
2013-4-8,62,52,42,55,47,40,93,84,75,28.96,28.69,22,7,22,0.00
2013-4-9,46,41,38,42,39,36,95,93,88,29.03,28.84,16,9,16,0.00
2013-4-10,38,35,32,36,33,31,94,93,92,29.12,28.76,27,9,27,0.00
2013-4-11,41,38,35,40,36,33,95,93,92,28.83,28.56,14,7,14,0.00
2013-4-12,36,34,32,35,31,27,95,89,82,28.89,28.58,17,7,19,0.00
2013-4-13,43,35,30,34,29,26,88,80,66,28.99,28.88,20,9,20,0.00
2013-4-14,56,42,32,53,39,28,94,89,79,28.97,28.51,22,8,22,0.00
2013-4-15,48,41,34,46,35,29,93,79,67,29.06,28.66,25,11,25,0.00
2013-4-16,50,39,31,38,33,28,89,78,61,29.29,29.04,17,7,17,0.00
2013-4-17,41,40,38,40,36,33,95,88,76,29.28,28.70,23,7,23,0.00
2013-4-18,44,39,33,42,37,31,95,94,92,28.75,28.42,24,10,24,0.00
2013-4-19,37,33,31,32,29,27,93,84,74,29.01,28.53,31,15,31,0.00
2013-4-20,43,32,26,29,27,24,91,80,54,29.29,29.01,10,4,10,0.00
2013-4-21,57,44,34,46,38,29,90,77,66,29.36,29.14,30,18,30,0.00
2013-4-22,60,51,45,51,46,43,92,85,70,29.22,28.97,21,13,21,0.00
2013-4-23,43,36,32,40,32,27,91,83,72,29.10,29.01,22,14,22,0.00
2013-4-24,52,43,28,37,32,25,90,68,45,29.12,28.99,25,11,25,0.00
2013-4-25,54,41,31,34,30,25,88,69,35,29.28,29.07,22,10,22,0.00
2013-4-26,70,54,38,50,42,32,85,65,44,29.25,29.14,29,16,29,0.00
2013-4-27,70,55,42,52,46,39,93,75,51,29.25,29.04,20,9,20,0.00
2013-4-28,76,58,41,52,47,38,91,68,42,29.05,28.81,18,8,18,0.00
2013-4-29,75,62,52,60,54,47,92,78,58,28.88,28.66,23,8,23,0.00
2013-4-30,81,68,55,62,56,45,92,68,47,28.97,28.63,33,12,33,0.00
2013-5-1,59,51,39,48,43,35,88,76,63,29.34,28.95,18,4,18,0.00
2013-5-2,39,34,32,35,32,30,93,90,83,29.41,29.29,13,3,13,0.00
2013-5-3,37,34,32,35,32,29,94,93,91,29.32,29.01,4,0,4,0.00
2013-5-4,67,50,36,60,47,35,96,90,77,29.10,28.98,5,0,5,0.00
2013-5-5,71,56,43,57,49,40,93,78,54,29.12,29.05,5,0,5,0.00
2013-5-6,78,61,47,56,50,44,92,69,39,29.14,29.04,7,0,7,0.00
2013-5-7,82,65,49,54,48,43,87,58,32,29.12,29.02,9,0,9,0.00
2013-5-8,80,66,53,56,50,42,88,59,39,29.07,28.99,19,4,19,0.00
2013-5-9,61,58,53,59,55,51,94,92,83,29.00,28.88,14,1,14,0.00
2013-5-10,63,54,44,54,48,42,94,82,64,29.07,28.95,6,1,6,0.00
2013-5-11,54,48,37,48,35,25,90,63,38,29.16,28.93,28,10,28,0.00
2013-5-12,59,45,32,32,29,27,79,56,35,29.25,29.14,20,3,20,0.00
2013-5-13,70,55,37,47,37,26,72,53,32,29.19,28.86,22,8,22,0.00
2013-5-14,96,74,54,60,54,46,82,53,27,28.87,28.61,27,9,27,0.00
2013-5-15,77,67,55,51,47,44,72,50,34,28.98,28.72,10,1,10,0.00
2013-5-16,86,70,55,52,48,43,69,48,29,29.00,28.89,19,2,19,0.00
2013-5-17,79,66,53,63,56,49,89,72,56,29.05,28.92,20,2,20,0.00
2013-5-18,81,69,54,66,59,50,86,72,56,29.05,28.88,20,8,20,0.00
2013-5-19,82,71,62,72,65,58,93,81,67,28.91,28.63,32,14,34,0.00
2013-5-20,77,67,60,63,60,56,95,80,57,28.77,28.63,25,9,25,0.00
2013-5-21,68,62,58,60,56,54,93,81,66,28.73,28.61,16,6,16,0.00
2013-5-22,68,61,55,58,55,53,93,81,66,28.86,28.69,7,2,7,0.00
2013-5-23,66,56,49,53,47,40,93,73,48,29.33,28.86,6,1,6,0.00
2013-5-24,69,56,43,47,43,37,84,64,39,29.45,29.27,20,6,20,0.00
2013-5-25,55,51,49,49,47,44,91,85,78,29.35,29.27,21,6,21,0.00
2013-5-26,55,50,45,52,47,42,94,89,82,29.28,29.07,29,1,29,0.00
2013-5-27,60,56,53,58,54,51,96,95,93,29.10,28.84,11,0,11,0.00
2013-5-28,76,63,53,68,61,52,96,91,78,28.86,28.71,13,2,13,0.00
2013-5-29,80,66,59,70,63,57,95,88,72,28.90,28.76,21,8,21,0.00
2013-5-30,76,68,62,68,64,59,95,88,72,28.81,28.62,32,16,32,0.00
2013-5-31,75,67,60,66,62,58,94,84,66,28.76,28.67,26,14,26,0.00
2013-6-1,68,64,58,62,57,53,94,79,65,28.88,28.66,12,4,12,0.00
2013-6-2,63,55,47,53,46,42,88,72,54,29.10,28.88,11,1,11,0.00
2013-6-3,73,60,48,50,46,42,82,62,43,29.14,29.03,9,1,9,0.00
2013-6-4,59,56,52,54,51,49,91,83,73,29.20,29.08,21,5,21,0.00
2013-6-5,62,57,53,60,55,51,94,92,86,29.10,28.97,10,2,10,0.00
2013-6-6,65,58,56,60,56,53,96,91,82,29.02,28.94,3,0,3,0.00
2013-6-7,67,59,54,58,54,52,94,85,71,29.06,28.97,0,0,0,0.00
2013-6-8,71,63,54,59,55,51,89,76,59,29.00,28.93,14,3,14,0.00
2013-6-9,70,64,59,64,58,52,92,82,73,28.94,28.80,20,7,20,0.00
2013-6-10,76,66,60,63,60,58,94,83,63,28.93,28.82,4,0,4,0.00
2013-6-11,86,73,59,68,63,57,92,73,51,28.96,28.84,17,4,17,0.00
2013-6-12,82,72,66,74,67,63,94,87,74,28.97,28.68,19,2,19,0.00
2013-6-13,77,69,60,64,60,57,94,75,52,29.10,28.86,17,1,17,0.00
2013-6-14,63,63,63,57,57,57,81,81,80,29.09,29.08,0,0,0,0.00
2013-6-15,78,73,63,69,67,60,94,81,73,29.05,28.88,17,4,17,0.00
2013-6-16,84,74,63,68,58,50,94,62,32,29.00,28.93,8,1,8,0.00
2013-6-17,86,75,64,60,56,53,71,54,34,29.01,28.93,10,0,10,0.00
2013-6-18,76,67,60,60,57,53,89,71,55,29.14,28.99,5,0,5,0.00
2013-6-19,82,70,58,61,57,52,84,65,45,29.17,29.05,18,6,18,0.00
2013-6-20,88,74,63,66,60,56,79,65,46,29.13,29.05,24,11,24,0.00
2013-6-21,82,73,62,72,67,60,94,82,69,29.08,28.94,21,10,21,0.00
2013-6-22,86,75,65,77,70,62,93,85,73,29.06,28.86,22,7,22,0.00
2013-6-23,80,72,66,70,66,62,90,81,65,29.02,28.86,21,5,21,0.00
2013-6-24,75,68,64,70,65,62,93,90,81,29.06,28.88,24,7,24,0.00
2013-6-25,82,73,65,75,70,63,95,90,79,28.94,28.79,17,4,17,0.00
2013-6-26,85,74,67,76,69,64,93,85,68,28.88,28.72,16,4,16,0.00
2013-6-27,86,76,66,71,63,55,89,67,37,28.91,28.86,20,2,20,0.00
2013-6-28,78,71,64,62,60,58,85,69,52,28.88,28.76,15,3,15,0.00
2013-6-29,71,65,62,64,60,58,93,86,74,28.95,28.75,13,2,13,0.00
2013-6-30,74,66,56,58,54,52,87,68,48,29.12,28.94,9,2,9,0.00
2013-7-1,78,68,56,60,54,52,89,64,43,29.20,29.12,4,0,4,0.00
2013-7-2,80,70,61,62,58,53,80,65,44,29.17,29.08,5,0,5,0.00
2013-7-3,78,68,57,58,54,50,81,64,47,29.14,29.04,10,2,10,0.00
2013-7-4,84,72,59,61,57,51,83,62,43,29.10,29.01,14,6,14,0.00
2013-7-5,85,74,62,63,60,56,84,63,45,29.08,28.99,21,9,21,0.00
2013-7-6,88,76,65,68,64,60,86,69,50,29.04,28.98,18,10,18,0.00
2013-7-7,88,79,68,71,68,64,87,70,53,28.99,28.94,18,9,18,0.00
2013-7-8,88,82,71,75,73,69,93,75,61,29.03,28.95,9,0,9,0.00
2013-7-9,86,78,71,77,73,68,94,85,72,29.04,28.92,14,4,14,0.00
2013-7-10,78,71,65,69,61,56,92,71,51,29.10,28.96,5,1,5,0.00
2013-7-11,82,71,60,64,59,55,87,68,51,29.17,29.10,11,2,11,0.00
2013-7-12,82,71,60,63,59,55,85,67,48,29.17,29.07,21,10,21,0.00
2013-7-13,75,68,62,65,60,57,89,77,65,29.18,29.08,19,7,19,0.00
2013-7-14,85,74,63,70,64,58,88,72,52,29.26,29.15,16,6,16,0.00
2013-7-15,87,73,69,73,67,63,88,82,62,29.27,29.24,7,1,7,0.00
2013-7-20,84,80,77,66,66,65,67,61,55,29.00,28.98,0,0,0,0.00
2013-7-21,83,73,65,68,64,61,86,75,60,28.98,28.90,11,4,11,0.00
2013-7-22,86,74,64,74,67,61,93,78,59,28.92,28.74,11,6,11,0.00
2013-7-23,74,68,60,61,56,53,85,66,53,29.05,28.84,4,1,4,0.00
2013-7-24,74,70,60,58,56,53,79,62,53,29.12,29.05,7,1,7,0.00
2013-7-25,82,64,58,66,58,53,92,81,54,29.09,29.02,17,6,17,0.00
2013-7-26,72,68,57,66,58,52,94,70,60,29.05,28.98,12,1,12,0.00
2013-7-27,62,55,48,52,48,45,91,76,60,29.08,29.01,5,0,5,0.00
2013-7-28,68,63,59,53,52,50,75,67,57,29.11,29.04,0,0,0,0.00
2013-7-29,74,57,52,57,51,48,88,80,56,29.20,29.10,2,0,2,0.00
2013-7-30,72,67,64,64,62,61,90,83,75,29.15,29.10,10,3,10,0.00
2013-7-31,76,64,61,66,61,59,93,91,69,29.14,29.09,4,0,4,0.00
2013-8-1,78,78,78,60,60,60,52,52,52,29.03,29.03,0,0,0,0.00
2013-8-2,73,70,67,61,59,58,73,69,65,29.04,28.95,2,0,2,0.00
2013-8-3,77,71,60,59,55,54,87,59,47,29.20,29.06,0,0,0,0.00
2013-8-4,72,70,66,58,57,56,71,64,60,29.25,29.14,1,1,1,0.00
2013-8-5,74,66,59,70,62,55,94,89,82,29.11,28.88,17,8,17,0.00
2013-8-6,82,73,64,74,69,62,95,88,68,28.94,28.86,7,1,7,0.00
2013-8-7,73,72,70,64,63,62,83,73,69,28.97,28.93,2,2,2,0.00
2013-8-8,77,70,56,63,59,52,90,71,61,29.07,29.03,101,5,101,0.00
2013-8-9,71,67,63,64,62,56,88,84,77,29.14,29.06,0,0,0,0.00
2013-8-10,73,66,55,62,58,51,86,76,65,29.21,29.14,4,1,4,0.00
2013-8-11,75,67,62,67,62,58,89,83,74,29.16,29.05,10,3,10,0.00
2013-8-12,76,68,61,66,60,56,94,78,56,29.08,29.02,4,1,4,0.00
2013-8-13,70,63,55,57,53,48,91,71,52,29.23,29.08,2,0,2,0.00
2013-8-14,73,65,52,55,52,47,85,65,52,29.27,29.18,2,0,2,0.00
2013-8-15,69,68,65,57,56,56,73,67,62,29.20,29.19,0,0,0,0.00
2013-8-16,69,63,55,60,55,51,87,74,63,29.24,29.18,0,0,0,0.00
2013-8-17,81,72,57,63,59,50,82,65,51,29.28,29.18,7,2,7,0.00
2013-8-18,78,68,59,62,58,52,84,70,55,29.25,29.12,54,5,54,0.00
2013-8-19,79,66,58,66,59,54,86,78,63,29.13,29.04,12,6,12,0.00
2013-8-20,84,73,63,71,66,60,90,78,64,29.07,29.00,20,10,20,0.00
2013-8-21,86,76,68,73,68,64,88,78,63,29.03,29.01,12,6,13,0.00
2013-8-22,78,71,65,71,67,63,94,88,76,29.13,29.10,10,3,10,0.00
2013-8-23,80,70,61,71,65,59,94,85,69,29.21,29.14,14,5,14,0.00
2013-8-24,83,75,62,74,68,56,85,79,74,29.23,29.14,17,11,17,0.00
2013-8-25,86,79,69,74,71,65,89,77,65,29.20,29.12,17,8,17,0.00
2013-8-26,71,71,71,64,64,63,77,77,77,29.12,29.12,8,7,8,0.00
2013-8-27,88,80,71,76,73,68,89,81,65,28.98,28.91,8,1,8,0.00
2013-8-28,83,77,73,77,74,70,93,88,81,29.08,28.95,6,0,6,0.00
2013-8-29,89,79,70,77,73,68,93,82,62,29.09,28.98,12,6,12,0.00
2013-8-30,90,79,73,79,74,68,93,83,67,28.99,28.87,11,2,11,0.00
2013-8-31,84,74,68,72,68,65,92,82,67,28.92,28.84,32,1,32,0.00
2013-9-1,79,70,60,71,63,56,93,80,59,28.97,28.81,11,2,11,0.00
2013-9-2,67,59,52,56,53,48,93,81,67,29.09,28.96,4,0,4,0.00
2013-9-3,74,60,46,58,52,43,93,76,54,29.16,29.07,8,0,8,0.00
2013-9-4,84,70,56,70,60,51,85,73,59,29.17,29.08,5,1,5,0.00
2013-9-5,80,72,65,71,66,61,92,83,73,29.26,29.16,58,1,58,0.00
2013-9-6,85,73,60,68,63,57,88,73,53,29.20,28.99,16,8,16,0.00
2013-9-7,86,75,66,74,67,60,89,77,64,29.01,28.90,20,2,20,0.00
2013-9-8,75,71,67,70,66,63,91,85,76,29.07,28.95,8,0,8,0.00
2013-9-9,94,78,66,75,68,64,94,74,45,28.95,28.82,13,4,13,0.00
2013-9-10,92,78,67,70,65,61,80,66,46,29.07,28.89,9,2,9,0.00
2013-9-11,82,71,63,69,63,58,93,77,58,29.12,29.04,9,1,9,0.00
2013-9-12,66,60,55,58,54,51,86,81,74,29.16,29.07,2,0,2,0.00
2013-9-13,65,58,46,49,47,43,89,66,55,29.30,29.16,4,0,4,0.00
2013-9-14,73,59,44,50,46,39,83,64,42,29.19,28.94,14,7,14,0.00
2013-9-15,63,57,54,57,53,49,92,86,74,29.28,28.92,17,2,17,0.00
2013-9-16,63,56,48,54,49,44,93,80,62,29.41,29.28,7,0,7,0.00
2013-9-17,62,54,47,59,51,44,91,88,80,29.33,29.05,18,6,18,0.00
2013-9-18,63,62,62,61,60,59,93,92,89,29.06,28.95,17,10,17,0.00
2013-9-19,82,73,66,71,68,64,93,84,67,28.86,28.77,11,6,11,0.00
2013-9-20,66,58,50,63,53,47,93,84,70,28.97,28.86,5,0,5,0.00
2013-9-21,65,54,43,50,47,41,93,79,60,29.03,28.95,2,0,2,0.00
2013-9-22,70,57,46,56,50,43,91,77,58,29.07,28.97,19,6,19,0.00
2013-9-23,71,61,49,54,51,45,90,71,52,29.07,28.97,22,9,22,0.00
2013-9-24,72,59,48,58,51,45,90,76,58,29.02,28.95,10,1,10,0.00
2013-9-25,71,59,48,57,52,45,91,77,57,29.03,28.94,9,0,9,0.00
2013-9-26,80,64,51,62,55,48,89,74,54,29.04,28.97,21,8,21,0.00
2013-9-27,81,68,57,64,57,51,81,69,53,29.08,28.97,23,12,23,0.00
2013-9-28,70,62,56,62,57,53,92,85,72,28.99,28.84,24,8,24,0.00
2013-9-29,70,61,45,51,47,42,92,63,45,29.10,28.97,18,7,18,0.00
2013-9-30,73,59,49,52,48,44,87,69,44,28.99,28.79,23,11,23,0.00
2013-10-1,79,66,58,59,53,42,91,66,36,29.04,28.82,15,4,15,0.00
2013-10-2,78,64,52,58,47,40,77,54,35,29.12,28.93,17,3,17,0.00
2013-10-3,76,67,61,68,62,57,92,84,70,28.94,28.82,20,5,20,0.00
2013-10-4,70,64,60,66,62,57,93,91,85,28.97,28.84,13,2,13,0.00
2013-10-5,68,61,50,66,51,41,92,71,58,28.86,28.82,20,6,20,0.00
2013-10-6,48,46,45,43,42,40,86,83,78,28.82,28.75,4,1,4,0.00
2013-10-7,61,53,47,48,45,42,91,75,55,29.09,28.84,7,2,7,0.00
2013-10-8,76,60,46,50,45,42,87,62,34,29.12,29.03,22,9,22,0.00
2013-10-9,73,60,49,53,47,44,85,64,38,29.18,29.09,18,9,18,0.00
2013-10-10,58,50,46,51,44,41,85,81,77,29.15,29.13,9,5,9,0.00
2013-10-11,74,64,53,59,54,49,89,72,53,28.99,28.83,25,14,25,0.00
2013-10-12,66,57,47,56,42,33,79,59,36,29.24,28.84,13,6,13,0.00
2013-10-13,60,47,37,41,34,30,78,61,39,29.45,29.25,0,0,0,0.00
2013-10-14,65,52,38,44,39,33,80,63,41,29.42,29.00,22,4,22,0.00
2013-10-15,56,50,46,54,45,42,92,83,73,29.01,28.81,22,10,22,0.00
2013-10-16,49,46,42,45,44,40,93,90,84,29.00,28.82,17,2,17,0.00
2013-10-17,57,47,41,43,39,36,92,75,50,28.97,28.84,10,1,10,0.00
2013-10-18,52,44,37,41,35,29,89,71,50,29.02,28.88,17,2,17,0.00
2013-10-19,49,40,32,40,34,28,90,81,68,28.95,28.77,15,3,15,0.00
2013-10-20,54,41,29,45,35,26,89,80,66,28.90,28.71,21,5,21,0.00
2013-10-21,42,36,30,33,26,22,84,68,53,29.03,28.90,16,3,16,0.00
2013-10-22,44,34,28,31,27,21,83,73,57,29.05,28.94,4,0,4,0.00
2013-10-23,41,34,28,32,26,21,88,74,56,29.10,29.03,10,1,10,0.00
2013-10-24,42,35,30,28,24,21,73,65,51,29.36,29.10,13,0,13,0.00
2013-10-25,52,40,27,33,29,23,87,66,42,29.38,28.95,22,6,22,0.00
2013-10-26,50,42,34,34,30,26,78,63,48,29.13,28.88,19,6,19,0.00
2013-10-27,57,41,27,35,29,23,86,66,42,29.10,28.90,18,5,18,0.00
2013-10-28,46,40,35,34,32,29,82,73,62,29.37,29.03,0,0,4,0.00
2013-10-29,57,46,37,42,36,30,78,70,54,29.37,29.09,18,2,18,0.00
2013-10-30,59,52,49,55,48,41,93,86,73,29.09,28.69,25,11,25,0.00
2013-10-31,57,45,39,55,43,36,93,91,89,28.70,28.45,16,4,17,0.00
2013-11-1,50,43,36,42,38,32,90,83,66,28.84,28.47,15,3,15,0.00
2013-11-2,48,40,32,35,32,27,90,73,55,29.16,28.83,14,3,14,0.00
2013-11-3,52,41,30,39,33,26,88,74,57,29.23,29.03,35,16,35,0.00
2013-11-4,47,44,39,44,40,34,92,84,71,29.19,28.99,27,13,27,0.00
2013-11-5,53,42,34,52,40,32,94,92,90,29.25,28.81,23,2,23,0.00
2013-11-6,46,36,28,45,31,22,94,81,53,29.24,28.80,19,4,19,0.00
2013-11-7,44,33,26,35,28,22,89,82,68,29.27,29.21,19,5,19,0.00
2013-11-8,48,36,24,37,29,21,90,77,55,29.28,28.76,32,12,32,0.00
2013-11-9,50,42,33,41,35,27,86,77,65,29.22,28.77,72,9,72,0.00
2013-11-10,47,37,30,33,30,26,85,75,58,29.39,29.13,15,5,15,0.00
2013-11-11,42,28,13,34,22,8,88,78,73,29.66,29.09,37,3,37,0.00
2013-11-12,24,16,7,16,10,4,86,80,69,29.79,29.56,14,3,37,0.00
2013-11-13,43,29,15,29,20,10,83,69,53,29.56,29.04,25,15,25,0.00
2013-11-14,48,37,29,32,27,21,79,67,53,29.04,28.88,18,10,18,0.00
2013-11-15,53,39,27,42,32,23,87,78,63,28.94,28.80,17,8,17,0.00
2013-11-16,56,47,36,54,44,32,93,91,84,28.81,28.34,27,16,27,0.00
2013-11-17,49,41,35,48,38,31,94,89,84,28.87,28.35,21,9,21,0.00
2013-11-18,38,33,26,32,27,22,86,79,67,29.28,28.87,24,7,24,0.00
2013-11-19,42,37,23,33,30,20,89,76,68,29.31,29.10,27,18,27,0.00
2013-11-20,36,35,34,34,32,29,92,86,77,29.11,28.99,26,17,26,0.00
2013-11-21,40,35,29,39,33,27,93,93,92,29.38,29.06,10,1,10,0.00
2013-11-22,29,24,20,27,22,17,92,89,87,29.55,29.38,0,0,0,0.00
2013-11-23,20,11,5,16,5,0,85,76,69,29.78,29.49,15,2,15,0.00
2013-11-24,24,14,2,13,8,-1,86,76,59,29.72,29.21,23,11,23,0.00
2013-11-25,33,28,19,28,23,12,90,83,70,29.21,29.03,23,13,23,0.00
2013-11-26,32,22,8,26,14,2,81,71,58,29.31,29.07,24,11,24,0.00
2013-11-27,24,14,5,15,8,0,84,77,66,29.36,29.11,17,5,17,0.00
2013-11-28,30,19,10,21,13,6,84,77,64,29.51,29.08,16,4,16,0.00
2013-11-29,32,22,12,25,17,8,86,81,73,29.55,29.24,21,9,21,0.00
2013-11-30,41,31,23,33,26,20,88,82,72,29.24,29.04,18,8,18,0.00
2013-12-1,40,31,23,32,27,20,90,84,72,29.18,28.96,7,0,7,0.00
2013-12-2,39,33,27,35,30,24,91,89,83,28.97,28.66,22,10,22,0.00
2013-12-3,38,36,35,36,34,33,94,93,91,28.68,28.62,10,4,10,0.00
2013-12-4,44,34,25,43,32,22,95,93,88,28.81,28.46,25,14,25,0.00
2013-12-5,25,14,6,22,9,2,88,80,75,29.34,28.80,25,13,25,0.00
2013-12-6,13,6,0,6,0,-5,82,79,71,29.61,29.32,16,5,16,0.00
2013-12-7,11,4,-4,3,-2,-8,83,77,68,29.73,29.55,8,1,8,0.00
2013-12-8,18,14,10,14,9,2,87,81,71,29.56,28.99,10,2,10,0.00
2013-12-9,14,2,-8,11,-2,-13,88,82,74,29.21,28.98,19,6,19,0.00
2013-12-10,15,10,-4,12,6,-8,87,81,74,29.23,28.87,23,13,23,0.00
2013-12-11,16,2,-5,12,-3,-10,87,78,70,29.56,29.23,15,5,15,0.00
2013-12-12,19,9,-4,13,4,-9,87,80,76,29.45,29.14,23,9,23,0.00
2013-12-13,22,15,12,17,12,9,88,86,79,29.14,29.06,8,3,10,0.00
2013-12-14,23,17,9,18,13,5,90,85,79,29.15,29.06,19,7,19,0.00
2013-12-15,12,7,2,5,2,-3,82,77,70,29.12,29.06,17,2,17,0.00
2013-12-16,19,14,8,16,10,4,90,85,80,29.11,29.01,11,6,11,0.00
2013-12-17,30,22,13,26,18,9,91,84,74,29.16,28.98,18,8,18,0.00
2013-12-18,37,25,12,31,21,8,88,83,72,29.15,28.75,25,9,25,0.00
2013-12-19,32,27,3,28,23,0,92,86,78,28.94,28.80,3,0,3,0.00
2013-12-20,26,22,21,24,20,18,92,90,89,28.92,28.83,0,0,0,0.00
2013-12-21,26,24,22,24,22,20,93,91,90,28.91,28.78,0,0,0,0.00
2013-12-22,26,19,2,24,16,-2,93,88,83,29.22,28.79,14,2,14,0.00
2013-12-23,2,-4,-11,-2,-9,-16,84,81,76,29.49,29.22,22,4,22,0.00
2013-12-24,10,-2,-14,6,-7,-19,87,80,75,29.50,29.20,23,9,23,0.00
2013-12-25,18,14,10,16,11,6,90,88,87,29.20,29.15,16,8,16,0.00